Find Starlink 1736

NORAD ID: 46585 Int'l Des: 2020-070 Owner: SPXS Country: US Constellation: starlink decayed
LEOCIRCULAR

Re-entered — Jun 15, 2026

Loading 3D Globe...

About Starlink 1736

Starlink 1736 (NORAD 46585) is a starlink constellation satellite (v1.0) launched Oct 6, 2020 by SPXS of US. It re-entered the atmosphere on Jun 15, 2026. with a mass of 260.00 kg.

About Starlink 1736

Description loading...

Altitude History

Loading altitude history...

Two-Line Element Set

1 46585U 20070BF 26166.72677462 .11009302 12527-4 34523-3 0 9996
2 46585 53.0176 341.7037 0009224 287.5605 72.4435 16.44221195315882
Epoch: Jun 15, 2026 • Age: 44 hours

Current Status

Position data unavailable
Launch Date Oct 6, 2020
Age 5.6 years
Decay Date Jun 15, 2026
Type internet

Technical Details

Classification Payload
Mass 260.00 kg
Dry Mass 248.00 kg
Total Mass 260.00 kg
Length 0.20 m
Diameter 2.80 m
Span 9.00 m
Shape Box + pan
Manufacturer SPXS
Bus Type Starlink
Phase Status In Orbit
Owner/State SPXS/US

Most Searched